Terminal Aerodrome Forecast
Issued by NWS

Home | Current Version | Previous Version | Graphics & Text | Print | Product List | Glossary On
Versions: 1 2 3 4 5 6 7 8 9 10 11 12 13 14 15 16 17 18 19
000
FTUS43 KABR 012000 AAA
TAFMBG
TAF AMD
KMBG 012008Z 0120/0218 33015KT P6SM OVC035
     FM020200 VRB04KT P6SM SKC
     FM021200 14013KT P6SM BKN250=

USA.gov is the U.S. government's official web portal to all federal, state and local government web resources and services.